STARLINK-11072 (58705 NORAD) Tracking and Keplerian Element Data

This shows tracking and keplerian element data for the satellite.

Feedback or suggestion? Click here.




ElementValue
Catalog58705
NameSTARLINK-11072
Epoch Orbit277
Epoch Day13.25002315
Epoch Year2024
RAAN198.3725
Inclination53.1626
Eccentricity0.0001501
Argument of Perigee345.406
Mean Anonmoly97.6019
Mean Motion15.70050974
Decay Rate0.00095794
L11 58705U 24002A 24013.25002315 .00095794 00000+0 77541-3 0 9991
L22 58705 53.1626 198.3725 0001501 345.4060 97.6019 15.70050974 2770



Live tracking and technical data element details for STARLINK-11072 (NORAD 58705). STARLINK-11072 can be tracked NOW for your location showing map with azimuth and elevation plus other details from your city location.







IsCatalogInMostPopularTable: catalog: 58705, numindb: 24
Update: records affected: 1



GetName: 58705 STARLINK-11072

Hit Count: updated at: Wed, 17 Apr 2024 02:38:04 GMT